Hourly Data Report for October 06, 2016

All times are specified in Local Standard Time (LST). Add 1 hour to adjust for Daylight Saving Time where and when it is observed.

BATHURST A
NEW BRUNSWICK

47°37'47.000" N
65°44'20.000" W
58.80 m
8100505
71574
ZBF

Download Data

Hourly Data (October 2016)
Hourly Data Report for October 6, 2016
Temp Definition
°C
Dew Point Temp Definition
°C
Rel Hum Definition
%
Wind Dir Definition
10's deg

Wind Spd Definition
km/h
Visibility Definition
km
Stn Press Definition
kPa
Hmdx Definition


Wind Chill Definition


Weather Definition


TIME
00:00 Legend Double Dagger 10.9 8.3 84 28 8 24.1 101.56     LegendNANA
01:00 Legend Double Dagger 8.9 7.2 89 26 9 24.1 101.58     LegendNANA
02:00 Legend Double Dagger 6.5 6.1 97 10 6 24.1 101.58     Clear
03:00 Legend Double Dagger 6.0 5.7 98 26 8 9.7 101.58     Fog
04:00 Legend Double Dagger 5.8 5.4 97 24 5 9.7 101.60     Fog
05:00 Legend Double Dagger 4.9 4.3 96 21 4 9.7 101.58     Fog
06:00 Legend Double Dagger 4.8 4.4 97 19 4 9.7 101.58     Fog
07:00 Legend Double Dagger 4.4 4.0 97 36 2 19.3 101.60     LegendNANA
08:00 Legend Double Dagger 8.4 7.0 91 36 3 19.3 101.61     Clear
09:00 Legend Double Dagger 12.3 8.4 77 36 3 19.3 101.59     LegendNANA
10:00 Legend Double Dagger 16.3 10.7 69 36 2 24.1 101.55     LegendNANA
11:00 Legend Double Dagger 19.4 10.0 54 29 4 24.1 101.49     Clear
12:00 Legend Double Dagger 20.2 9.3 49 26 12 24.1 101.44     LegendNANA
13:00 Legend Double Dagger 21.0 9.7 48 30 8 24.1 101.34     LegendNANA
14:00 Legend Double Dagger 22.1 10.1 46 27 14 24.1 101.24     Clear
15:00 Legend Double Dagger 20.4 11.5 56 8 13 24.1 101.22     LegendNANA
16:00 Legend Double Dagger 18.8 9.9 56 3 10 24.1 101.25     LegendNANA
17:00 Legend Double Dagger 18.0 10.5 61 12 9 24.1 101.23     Clear
18:00 Legend Double Dagger 14.2 10.8 80 36 2 24.1 101.31     LegendNANA
19:00 Legend Double Dagger 12.3 9.7 84 23 3 24.1 101.35     LegendNANA
20:00 Legend Double Dagger 12.6 9.5 81 22 7 24.1 101.36     Clear
21:00 Legend Double Dagger 10.7 9.0 89 19 5 24.1 101.34     LegendNANA
22:00 Legend Double Dagger 11.0 8.6 85 20 4 24.1 101.36     LegendNANA
23:00 Legend Double Dagger 9.7 8.3 91 12 4 24.1 101.37     Clear

Notes on Data Quality.

Legend

  • E = Estimated
  • M = Missing
  • NA = Not Available
  • ‡ = Partner data that is not subject to review by the National Climate Archives
Date modified: